CST,Max TemperatureF,Mean TemperatureF,Min TemperatureF,Max Dew PointF,MeanDew PointF,Min DewpointF,Max Humidity, Mean Humidity, Min Humidity, Max Sea Level PressureIn, Mean Sea Level PressureIn, Min Sea Level PressureIn, Max VisibilityMiles, Mean VisibilityMiles, Min VisibilityMiles, Max Wind SpeedMPH, Mean Wind SpeedMPH, Max Gust SpeedMPH,PrecipitationIn, CloudCover, Events, WindDirDegrees
2011-11-1,48,38,28,40,34,27,96,77,58,30.09,29.93,29.82,10,10,10,8,4,,0.04,5,Rain,252
2011-11-2,46,36,23,33,27,20,96,76,47,30.27,30.20,30.11,10,10,10,15,4,21,0.00,1,,306
2011-11-3,50,32,15,28,19,12,96,69,28,30.29,30.25,30.16,10,10,10,9,1,,0.00,0,,223
2011-11-4,53,34,15,26,16,10,92,56,19,30.27,30.15,30.02,10,10,10,14,4,22,0.00,0,,159
2011-11-5,54,44,33,39,34,26,87,67,49,30.01,29.83,29.68,10,10,10,15,10,26,0.00,0,,156
2011-11-6,48,44,39,42,36,23,80,69,53,29.75,29.60,29.47,10,10,9,21,11,36,0.00,7,Rain,197
2011-11-7,39,30,19,27,23,18,93,65,57,30.23,30.04,29.80,10,10,10,20,10,30,0.00,6,,258
2011-11-8,45,30,14,28,18,10,92,75,40,30.26,30.23,30.14,10,10,10,4,0,,0.00,0,,320
2011-11-9,44,30,16,28,24,13,96,81,43,30.19,29.98,29.84,10,7,2,20,7,29,0.00,5,Rain-Snow,305
2011-11-10,32,26,21,28,26,18,93,85,64,30.01,29.91,29.84,10,7,2,22,14,29,0.00,8,Snow,304
2011-11-11,44,30,17,25,22,15,93,74,43,29.90,29.65,29.53,10,9,2,10,4,17,0.02,3,Snow,183
2011-11-12,54,36,19,33,25,16,96,69,33,29.57,29.42,29.15,10,10,10,12,3,,0.00,0,,141
2011-11-13,39,32,26,34,28,25,96,84,75,29.39,29.24,29.11,10,9,2,15,3,,0.00,4,,267
2011-11-14,45,32,19,31,27,18,100,82,49,29.54,29.40,29.30,10,8,1,13,3,22,0.00,3,,228
2011-11-15,39,32,24,30,26,21,100,89,49,29.79,29.60,29.49,10,6,0,26,3,38,0.09,6,Fog-Snow,279
2011-11-16,27,23,19,21,14,10,86,74,63,30.08,29.96,29.79,10,8,2,13,9,22,0.00,8,Snow,275
2011-11-17,21,16,10,17,11,5,85,70,53,30.12,30.04,29.90,10,10,9,16,8,25,0.00,6,,284
2011-11-18,30,24,19,27,24,11,96,87,68,29.91,29.71,29.65,10,5,0,10,6,,0.04,7,Fog-Snow,109
2011-11-19,28,19,9,28,16,5,100,82,73,30.23,29.91,29.70,10,10,6,18,10,26,0.00,7,,332
2011-11-20,19,8,-2,6,1,-7,87,77,50,30.40,30.33,30.21,10,10,10,7,3,,0.00,2,,309
2011-11-21,21,8,-4,21,13,-9,100,91,78,30.34,30.27,30.17,10,6,2,7,2,,0.00,7,,176
2011-11-22,34,28,21,31,27,21,100,92,86,30.28,30.10,29.97,6,4,1,8,3,,0.00,8,,162
2011-11-23,48,40,32,32,31,30,100,84,50,30.06,29.97,29.91,10,6,1,9,6,18,0.00,4,,199
2011-11-24,48,37,26,34,30,24,100,88,56,29.90,29.78,29.66,10,6,0,9,2,,0.00,0,Fog,178
2011-11-25,42,32,21,36,30,20,96,86,70,29.81,29.75,29.65,10,9,4,13,3,16,0.00,3,,74
2011-11-26,36,32,28,36,30,24,100,90,80,30.09,29.89,29.78,10,6,1,24,11,33,0.27,8,Rain-Snow,343
2011-11-27,28,26,24,25,22,21,91,84,78,30.22,30.15,30.07,10,10,10,25,14,31,0.00,8,,334
2011-11-28,37,30,24,28,23,17,88,76,57,30.29,30.08,29.96,10,10,10,20,8,25,0.00,3,,242
2011-11-29,34,22,9,16,10,6,92,70,34,30.41,30.27,30.05,10,10,10,8,4,,0.00,0,,308
2011-11-30,32,20,9,25,18,6,92,82,66,30.22,30.02,29.95,10,9,3,8,2,,0.00,6,Snow,4